Weather History for KBVY - March, 2013

Change the Weather History Date:

Saturday, March 9, 2013

  Actual Average Record
Temperature  
Mean Temperature 33 °F -  
Max Temperature 39 °F 39 °F 63 °F (2002)
Min Temperature 27 °F 23 °F 1 °F (2007)
Degree Days  
Heating Degree Days 32    
Moisture  
Dew Point 23 °F    
Average Humidity 64    
Maximum Humidity 89    
Minimum Humidity 48    
Precipitation  
Precipitation 0.00 in - - ()
Sea Level Pressure  
Sea Level Pressure 30.24 in    
Wind  
Wind Speed 10 mph (NNE)    
Max Wind Speed 20 mph    
Max Gust Speed 26 mph    
Visibility 10 miles    
Events      
Averages and records for this station are not official NWS values.
T = Trace of Precipitation, MM = Missing Value Source: NWS Daily Summary

Daily Weather History Graph

Daily Weather History Graph

Search for Another Location

Airport or City:

Trip Planner

Search our weather history database for the weather conditions in past years. The results will help you decide how hot, cold, wet, or windy it might be!

Date:

Astronomy

Mar. 09, 2013 Rise Set
Actual Time 6:05 AM EST 5:43 PM EST
Civil Twilight 5:37 AM EST 6:11 PM EST
Nautical Twilight 5:04 AM EST 6:44 PM EST
Astronomical Twilight 4:32 AM EST 7:17 PM EST
Moon 4:29 AM EST (3/9) 3:40 PM EST (3/9)
Length of Visible Light 12h 33m
Length of Day
11h 37m
Waning Crescent, 5% of the Moon is Illuminated
Mar 9
Waning Crescent
Mar 11
New
Mar 19
First Quarter
Mar 27
Full
Apr 3
Last Quarter

Hourly Weather History & Observations

Time (EST) Temp. Windchill Dew Point Humidity Pressure Visibility Wind Dir Wind Speed Gust Speed Precip Events Conditions
12:53 AM 37.0 °F 29.8 °F 19.0 °F 48% 30.14 in 10.0 mi North 10.4 mph - N/A   Clear
1:53 AM 37.0 °F 29.8 °F 19.0 °F 48% 30.14 in 10.0 mi North 10.4 mph - N/A   Clear
2:53 AM 36.0 °F 28.5 °F 19.0 °F 50% 30.14 in 10.0 mi North 10.4 mph - N/A   Clear
3:53 AM 35.1 °F 27.9 °F 19.0 °F 52% 30.14 in 10.0 mi North 9.2 mph 18.4 mph N/A   Clear
4:53 AM 33.1 °F 25.5 °F 19.9 °F 59% 30.16 in 10.0 mi North 9.2 mph - N/A   Clear
5:53 AM 33.1 °F 25.5 °F 19.0 °F 56% 30.18 in 10.0 mi North 9.2 mph - N/A   Clear
6:53 AM 33.1 °F 24.4 °F 19.9 °F 59% 30.20 in 10.0 mi NNE 11.5 mph 18.4 mph N/A   Clear
7:53 AM 36.0 °F 26.7 °F 21.9 °F 57% 30.22 in 10.0 mi NNE 15.0 mph 23.0 mph N/A   Clear
8:53 AM 37.0 °F 27.0 °F 24.1 °F 59% 30.22 in 10.0 mi NNE 18.4 mph 25.3 mph N/A   Clear
9:53 AM 37.0 °F 26.7 °F 25.0 °F 62% 30.25 in 10.0 mi NNE 19.6 mph 26.5 mph N/A   Clear
10:53 AM 37.9 °F 30.0 °F 24.1 °F 57% 30.25 in 10.0 mi NNE 12.7 mph 26.5 mph N/A   Clear
11:53 AM 37.9 °F 30.5 °F 24.1 °F 57% 30.26 in 10.0 mi NE 11.5 mph 19.6 mph N/A   Clear
12:53 PM 39.0 °F 32.3 °F 25.0 °F 57% 30.25 in 10.0 mi ENE 10.4 mph - N/A   Clear
1:53 PM 39.0 °F 33.4 °F 26.1 °F 60% 30.25 in 10.0 mi ENE 8.1 mph - N/A   Clear
2:53 PM 39.0 °F 33.4 °F 26.1 °F 60% 30.25 in 10.0 mi East 8.1 mph - N/A   Clear
3:53 PM 39.0 °F 34.0 °F 27.0 °F 62% 30.25 in 10.0 mi ENE 6.9 mph - N/A   Clear
4:53 PM 39.0 °F 35.7 °F 26.1 °F 60% 30.27 in 10.0 mi NE 4.6 mph - N/A   Clear
5:53 PM 36.0 °F 33.3 °F 27.0 °F 70% 30.30 in 10.0 mi NNE 3.5 mph - N/A   Clear
6:53 PM 33.1 °F 30.0 °F 27.0 °F 78% 30.31 in 10.0 mi NE 3.5 mph - N/A   Clear
7:53 PM 30.9 °F 27.5 °F 26.1 °F 82% 30.31 in 10.0 mi NE 3.5 mph - N/A   Clear
8:53 PM 28.9 °F - 25.0 °F 85% 30.32 in 10.0 mi Calm Calm - N/A   Clear
9:53 PM 28.9 °F 22.8 °F 25.0 °F 85% 30.35 in 10.0 mi NNW 5.8 mph - N/A   Clear
10:53 PM 27.0 °F - 24.1 °F 89% 30.33 in 8.0 mi Calm Calm - N/A   Clear
11:53 PM 27.0 °F 20.5 °F 24.1 °F 89% 30.34 in 9.0 mi North 5.8 mph - N/A   Clear